sat.trackr.live / text

‹ back to catalog

STARLINK-32860

NORAD 62856 · 2025-022C

PAYLOAD ACTIVE UNKNOWN

§ Identity

Operator
Country
US
Launch date
2025-02-01
Launch site
AFWTR
Launch vehicle
Mass (kg)
RCS (m²)

Purposes: comms

External: N2YO · Heavens-Above · Gunter

§ Orbital elements

Epoch: 2026-09-20T09:02:08.145024Z

Period
93.85 min
Inclination
53.1597°
Eccentricity
0.0000906
Mean motion
15.34406344 rev/d
Perigee alt
462.1 km
Apogee alt
463.3 km
Semi-major
6,840.8 km
B*
4.1285e-4
RAAN
302.0423°
Arg perigee
85.5942°
Mean anomaly
274.5164°
Rev number
9,175

§ Raw data

STARLINK-328601 62856U 25022C   26263.37648316  .00013601  00000+0  41285-3 0  99982 62856  53.1597 302.0423 0000906  85.5942 274.5164 15.34406344 91756

JSON: /api/v1/satellites/62856 · /tle

For live sub-satellite position, see the globe view (requires WebGL).

§ Visibility from observer

Set your observer location to see the next 7 days of passes ≥ 10°. The values pass through the URL so the page stays shareable.

No JS? Fill the form by hand. The geolocation button needs JavaScript.